Theta_e
326 325 324 324 325 325 324 326 331 329 331 337 336 339 338 336 337 335 333 332 332 328 327 330 331 331 332 331 330 327 326 329 329 332 335 332 332 334 334 334 333 333 333 333 333 333 332 331 330 328 326 325 323 322 322 323 323 321 321 318 315 313 311 307 304 304 305 306 307 307 308 308 308 308 308 308 308 308 308 308 307 307 306 305 304 304 303 302 302 302 302 302 302 303 303 303 304
326 326 324 324 325 325 325 326 333 332 335 338 335 339 337 335 337 335 334 333 331 327 327 330 330 330 330 329 329 328 328 326 325 328 331 332 334 334 334 334 333 333 333 333 333 332 332 331 329 327 326 324 320 319 319 318 317 318 317 315 314 311 307 305 305 305 306 307 307 308 308 308 308 308 308 308 308 308 308 308 307 307 306 305 303 302 302 301 301 302 302 303 303 303 304 304 304
325 326 325 325 325 324 325 328 332 333 337 339 337 340 336 337 338 333 330 328 326 326 328 329 329 328 327 330 330 330 329 325 327 329 330 333 334 334 334 333 333 333 333 333 333 332 332 331 329 327 325 322 317 317 317 315 315 315 315 314 312 308 305 305 305 306 307 308 308 308 308 308 308 308 308 308 308 308 308 308 308 307 306 304 303 302 301 301 302 302 303 303 304 304 304 304 304
325 326 325 326 325 325 332 335 335 336 338 339 340 341 337 336 334 328 327 326 326 327 328 328 327 326 327 330 328 328 327 326 328 329 331 332 333 334 333 333 333 333 333 333 333 332 332 331 329 327 324 320 315 315 315 314 315 314 314 311 308 305 305 305 306 307 308 308 308 308 307 308 308 308 309 308 309 308 309 308 308 307 305 304 302 301 301 301 302 303 303 304 304 304 304 304 304
324 326 326 327 326 328 334 334 332 334 336 339 342 340 337 332 328 327 326 326 327 327 327 327 326 325 326 327 325 326 327 327 328 330 331 332 333 333 333 333 333 333 333 332 332 332 332 331 330 327 323 319 315 314 314 314 314 313 311 308 305 305 305 306 307 307 308 308 307 307 307 308 308 309 309 309 309 309 309 308 308 307 305 303 302 301 301 302 302 303 303 304 304 304 304 304 304
324 326 326 326 326 325 329 332 332 334 333 339 344 340 334 330 327 327 326 326 326 327 327 326 326 324 323 323 324 325 326 328 329 330 331 332 333 333 332 332 332 333 332 332 332 331 331 331 330 326 323 320 314 314 314 314 313 311 308 305 305 305 306 307 307 307 307 307 307 307 308 309 309 309 309 309 309 309 309 308 308 307 305 303 301 301 302 302 303 303 304 304 304 304 304 304 304
324 326 325 326 327 325 330 336 338 338 332 333 340 337 331 329 327 326 326 327 327 327 327 327 327 327 324 323 324 325 327 329 330 330 332 332 333 333 333 332 332 332 331 332 332 331 331 330 328 324 322 319 314 314 314 313 311 308 306 305 305 305 307 307 307 307 307 307 307 308 309 309 309 309 309 309 309 309 309 308 308 307 305 302 301 302 302 303 303 303 303 304 304 304 304 304 304
324 325 324 329 330 329 333 336 337 338 332 329 332 331 329 328 327 326 327 329 329 326 326 326 327 329 326 323 324 325 327 329 330 331 332 332 333 333 333 332 332 331 332 331 331 331 331 329 326 323 322 318 313 314 313 312 309 306 305 305 305 306 306 307 307 307 306 307 308 309 309 309 309 309 309 309 309 309 309 308 308 307 305 303 302 302 302 303 303 303 303 303 303 303 303 303 303
324 325 324 330 332 333 335 335 336 336 332 330 330 328 328 327 327 327 327 328 327 325 325 325 327 328 325 322 323 325 327 329 331 332 332 333 333 333 332 331 332 331 331 331 330 330 328 325 323 323 322 316 313 314 312 310 307 305 305 305 306 306 306 306 306 306 307 307 309 309 310 309 310 310 310 309 309 309 309 308 308 307 305 303 302 302 302 303 303 303 303 303 303 303 303 303 302
324 325 325 331 332 334 337 335 335 335 332 330 329 328 327 327 328 327 327 327 326 325 325 326 326 327 325 322 322 324 327 329 331 332 332 332 332 332 331 331 331 331 331 330 330 329 324 322 323 324 320 315 313 313 311 308 306 305 305 305 306 306 306 306 306 306 307 308 309 310 310 310 310 310 310 310 310 309 308 308 308 307 305 303 302 302 302 303 303 303 303 303 303 303 302 302 302
325 325 325 330 333 336 337 336 334 333 330 329 328 327 327 328 328 326 326 326 326 325 325 326 326 324 323 322 323 325 326 329 331 331 331 332 332 332 331 331 331 331 330 330 330 327 322 322 324 322 317 314 313 311 309 306 304 304 305 305 306 306 306 306 306 306 307 309 310 310 310 310 310 310 310 310 310 309 309 308 308 307 305 303 302 302 302 303 303 303 303 303 303 302 302 302 301
326 328 329 332 335 337 337 337 334 332 330 330 329 327 328 328 327 327 326 326 325 325 325 325 325 325 324 323 323 325 326 328 330 331 332 333 332 332 331 331 331 330 330 330 329 325 321 322 323 320 316 314 312 310 306 304 304 304 305 305 305 305 305 305 305 306 308 309 310 310 310 310 310 310 310 311 310 309 309 308 307 307 304 302 302 302 302 303 303 303 303 303 302 302 302 301 301
325 328 331 332 334 337 336 334 333 332 332 331 329 327 328 327 327 326 326 326 325 325 325 325 326 326 325 323 323 324 326 327 329 331 331 332 332 332 331 331 330 330 330 328 324 322 322 323 321 317 314 313 311 307 304 303 303 304 305 305 305 305 305 305 305 306 308 309 310 310 310 310 310 310 311 311 310 310 309 308 307 306 303 302 302 302 303 303 303 303 303 303 302 302 301 301 301
324 326 330 330 331 334 333 333 332 332 334 330 326 326 327 326 326 326 326 326 324 324 325 325 326 326 324 323 323 324 326 327 328 330 330 331 331 331 331 330 330 329 327 324 322 322 322 322 319 315 313 312 309 305 303 303 303 304 305 305 305 305 305 305 305 307 309 310 310 310 310 309 310 311 311 311 310 310 309 308 307 305 302 302 302 302 303 303 303 303 302 303 302 302 301 300 301
323 325 329 330 331 333 332 333 333 333 334 328 324 325 325 325 326 326 325 325 323 323 325 325 326 326 326 325 324 324 326 327 328 329 330 331 330 330 330 330 329 326 324 323 323 323 322 320 317 314 313 311 307 304 303 303 303 304 305 305 305 304 305 305 305 307 309 310 310 310 309 309 311 312 312 311 310 309 308 308 306 304 302 302 302 302 303 303 303 302 302 302 302 301 300 300 300
323 325 328 329 331 333 332 333 333 334 333 326 324 325 324 323 325 325 324 324 323 323 325 325 325 326 326 326 326 326 326 327 328 328 330 330 330 329 329 329 326 324 324 324 324 323 321 318 314 313 312 309 305 303 302 302 303 304 305 304 304 304 304 305 306 307 309 309 309 309 309 310 311 312 311 311 310 309 308 307 305 302 302 302 302 302 303 303 302 302 302 302 301 301 300 300 300
324 325 328 328 330 333 332 333 333 334 330 324 324 326 325 323 323 323 323 324 323 323 324 324 324 325 326 327 327 327 326 327 328 328 329 330 329 328 327 326 325 324 325 324 324 323 320 314 313 312 310 307 303 302 302 302 303 304 304 304 304 304 304 305 306 307 309 309 309 309 310 311 312 312 311 310 309 308 307 306 303 302 301 302 302 303 303 302 302 302 302 301 301 300 300 301 301
325 327 328 328 330 331 331 332 331 330 328 324 324 325 325 324 323 323 324 323 322 323 323 323 325 326 327 327 327 327 326 327 328 328 329 328 327 326 325 325 325 324 324 324 323 320 315 311 311 310 307 305 302 301 301 302 303 304 304 304 304 304 304 305 306 308 309 308 308 309 311 312 312 311 311 310 309 307 306 304 302 301 301 302 302 302 302 302 302 302 301 301 300 301 300 301 301
325 327 328 329 331 328 327 328 328 328 327 323 323 325 325 324 323 323 324 322 322 322 320 323 324 324 326 326 326 327 327 328 328 328 327 326 325 324 324 324 324 324 323 323 321 316 311 309 310 308 305 304 301 301 301 302 303 303 304 303 303 304 304 304 306 308 308 308 308 310 311 311 311 310 310 310 308 307 305 302 301 301 301 302 302 302 302 302 301 301 301 301 301 301 301 301 300
323 325 329 330 329 326 325 326 326 326 325 323 323 324 324 324 324 324 324 322 322 321 320 321 321 321 324 325 325 327 327 328 327 325 324 324 324 324 324 324 323 323 322 320 317 314 311 309 309 306 304 302 301 301 301 302 302 303 303 302 303 303 303 304 307 308 308 308 308 310 311 311 310 311 311 309 307 305 303 301 301 301 302 302 302 301 302 301 301 301 301 301 301 300 300 300 299
323 325 330 328 325 327 326 325 326 324 324 324 323 324 323 323 324 324 323 324 324 321 321 322 322 322 324 324 325 326 326 326 325 324 324 324 324 323 323 323 323 322 320 318 316 313 311 308 307 305 303 302 301 300 301 301 302 302 301 301 302 303 303 305 307 308 307 307 309 310 310 310 310 311 310 308 307 304 302 301 301 301 302 302 302 302 302 301 301 301 301 301 301 300 300 299 299
324 324 325 323 324 328 326 325 325 324 324 324 323 323 322 322 323 323 324 325 324 322 323 324 325 326 325 324 325 325 325 324 324 324 324 323 323 322 321 320 320 320 318 316 314 312 310 307 305 304 302 302 300 300 301 301 301 300 300 301 302 302 303 305 307 307 306 307 309 310 310 310 311 311 309 307 306 303 301 301 301 302 302 302 302 302 301 301 301 301 301 301 300 300 300 299 298
325 323 321 321 323 325 324 324 325 324 324 323 322 322 321 321 320 321 322 322 322 323 324 325 327 327 327 326 325 324 324 323 324 324 323 323 322 322 321 319 318 318 316 314 312 311 309 306 305 304 302 301 300 300 300 300 300 300 300 301 301 302 303 305 306 306 306 307 309 310 310 311 311 310 308 306 304 302 301 301 301 301 301 301 301 301 301 301 301 301 300 300 300 299 299 299 298
326 324 320 320 321 321 322 324 324 324 323 321 322 321 320 320 319 319 318 319 321 323 324 325 326 327 327 326 325 324 323 324 324 324 323 322 321 320 320 319 317 315 314 312 312 310 308 307 307 305 301 300 299 299 300 300 300 300 300 300 301 302 304 305 305 306 306 307 309 310 310 311 310 309 307 305 303 301 300 300 301 301 301 301 301 300 300 300 300 300 300 299 299 299 299 299 298
326 324 319 318 319 319 322 323 322 322 321 321 321 319 318 318 318 316 315 318 321 321 322 324 325 325 326 325 324 324 323 324 324 323 323 321 319 318 317 316 315 314 314 313 312 311 310 309 307 304 301 299 299 299 300 300 300 300 300 300 301 302 304 305 305 305 306 308 310 310 310 310 309 308 306 303 301 300 300 300 301 301 301 300 300 300 300 300 300 300 299 299 299 299 298 299 298
323 320 318 317 318 319 321 320 319 320 319 320 320 316 316 317 318 317 314 317 319 320 321 322 323 323 323 323 323 323 324 324 324 323 322 321 320 317 315 315 314 314 314 313 313 312 311 310 307 303 301 299 299 299 299 299 299 299 300 300 301 303 304 304 305 305 307 309 310 310 310 310 308 306 304 302 300 300 300 301 301 301 300 300 300 300 300 300 299 299 298 298 298 298 299 298 298
320 318 317 317 317 318 319 318 317 318 318 319 319 316 316 316 320 319 315 316 318 319 320 320 322 323 323 323 323 323 324 324 323 323 322 321 319 316 314 314 314 314 314 315 315 313 312 311 307 304 301 299 299 299 299 299 299 299 300 300 301 302 304 304 305 306 308 310 310 310 310 309 307 305 303 301 300 300 300 301 301 300 300 300 300 300 300 299 298 298 298 298 298 298 298 298 298
319 318 318 318 318 317 318 318 317 318 317 318 317 316 317 317 318 317 314 315 317 318 319 319 321 322 323 323 323 323 323 324 323 323 322 321 318 315 313 314 315 314 314 315 316 314 312 310 307 303 300 299 298 298 298 298 299 299 300 301 301 303 304 305 305 307 309 310 310 309 308 307 305 303 301 300 300 300 300 300 300 300 300 300 300 300 299 298 298 298 298 298 298 298 298 298 297
319 320 320 319 319 318 318 317 317 318 318 318 319 321 320 317 315 313 314 315 316 317 318 318 319 321 322 322 323 323 323 323 323 322 322 320 319 316 315 315 315 313 313 314 316 315 313 311 307 303 300 299 298 298 298 298 298 299 300 300 301 303 305 305 306 309 309 309 309 308 307 306 304 302 300 300 300 300 300 300 299 299 299 299 300 299 299 299 298 298 298 298 298 299 298 298 297
321 321 321 321 321 320 318 317 318 318 318 317 321 327 323 315 313 313 314 315 316 317 317 318 318 318 320 322 322 323 323 323 322 322 322 322 321 319 317 316 314 313 314 317 317 316 314 312 308 304 301 299 298 298 298 298 298 299 299 300 302 304 305 306 308 309 309 308 307 307 306 304 303 301 300 299 299 300 300 299 299 299 299 299 299 299 299 299 299 299 299 298 299 298 298 297 296
322 322 323 324 323 321 318 318 318 319 318 317 322 329 324 315 312 312 313 315 316 315 316 318 318 317 319 320 322 323 323 323 322 322 322 322 322 320 318 317 316 315 317 318 317 317 316 314 311 307 304 301 299 298 298 298 298 299 299 300 303 305 306 308 309 308 308 307 306 305 304 303 302 301 300 299 299 299 299 299 299 299 299 299 299 299 299 299 299 298 298 298 298 298 297 296 295
322 322 324 324 322 320 319 318 318 320 319 316 321 327 322 315 312 312 313 314 315 315 315 316 317 317 318 319 320 322 322 322 322 323 322 321 321 321 320 318 317 318 318 318 318 317 317 316 313 310 307 305 302 300 299 299 298 298 299 301 304 306 307 309 309 308 307 305 304 304 303 302 301 300 299 299 299 299 299 299 299 298 298 298 299 299 299 299 299 298 298 298 298 297 296 295 294
321 324 324 323 321 319 319 319 317 319 320 318 320 324 321 316 313 311 312 313 314 315 315 315 316 317 318 319 319 320 321 321 322 323 322 321 322 322 320 318 317 318 318 318 318 318 317 316 314 312 310 308 305 303 301 300 299 299 300 303 306 307 309 310 308 307 305 304 304 303 303 302 301 299 299 298 298 299 299 299 298 298 298 298 299 299 299 298 298 298 298 298 297 296 295 294 293
321 324 324 321 319 318 319 321 319 317 320 320 319 321 318 314 312 311 312 313 313 314 315 315 316 317 318 319 320 321 321 322 323 324 323 322 322 322 321 319 318 317 318 318 318 318 317 317 316 313 311 309 307 305 303 301 300 300 303 305 307 308 309 309 307 305 304 303 303 303 302 301 300 299 298 298 298 298 298 298 298 298 298 299 299 299 299 298 298 298 298 297 295 294 293 293 292
322 323 323 321 318 319 319 320 321 319 321 321 319 319 315 311 311 311 312 313 313 313 314 315 316 317 318 318 319 321 322 323 324 324 323 323 323 322 321 320 319 318 319 318 318 318 318 317 317 315 313 311 308 306 304 302 302 303 306 307 307 308 309 307 305 304 303 303 303 303 301 300 299 298 298 298 298 298 298 298 298 298 299 299 299 299 299 299 299 298 297 296 294 293 292 292 291
322 323 322 322 320 320 319 320 320 318 321 322 319 319 315 311 312 311 311 312 313 313 313 314 315 316 317 318 319 320 322 323 324 324 323 323 323 322 321 320 320 320 319 319 319 318 317 317 317 316 314 312 310 307 305 304 304 306 308 309 308 309 308 306 304 303 303 303 303 302 300 299 298 298 298 298 298 298 298 298 298 298 299 299 299 299 299 299 298 297 296 295 293 292 291 291 291
322 323 323 322 322 321 319 320 319 316 323 322 316 316 315 312 312 311 311 311 311 313 313 314 314 315 316 317 319 321 322 323 324 324 324 324 324 322 321 320 320 320 320 320 319 318 317 316 316 316 315 313 310 307 306 306 307 309 310 310 310 309 307 305 304 304 304 304 302 301 299 298 298 298 299 298 298 298 298 298 299 299 299 299 299 298 298 297 297 296 295 293 292 291 291 290 289
323 323 323 323 322 322 319 320 319 317 325 323 315 320 318 312 313 312 311 312 312 312 312 313 314 314 316 317 318 320 321 322 323 324 324 324 324 323 321 320 321 321 320 320 319 318 317 316 316 317 315 312 309 307 308 309 309 310 310 310 310 309 306 305 304 304 304 303 301 299 299 298 298 299 298 298 298 298 298 298 299 299 299 298 298 298 297 297 296 295 294 292 291 290 289 289 288
323 323 323 323 321 321 319 319 320 319 325 325 319 324 322 313 313 313 311 312 312 312 312 313 314 314 315 316 318 319 321 322 322 323 324 324 324 323 322 321 321 321 320 320 319 318 316 316 316 316 314 310 309 309 309 311 311 311 310 310 310 308 306 305 304 304 303 301 300 299 298 299 299 299 298 298 298 298 298 299 299 299 298 298 298 297 297 297 296 294 293 292 290 289 288 288 288
321 321 321 322 321 322 321 320 321 318 321 323 321 325 325 317 315 313 312 312 312 313 313 313 313 314 315 317 318 319 320 321 322 323 323 323 323 323 323 322 321 321 320 320 319 318 316 316 316 315 313 310 310 311 311 312 311 311 310 310 309 307 306 305 304 303 301 299 299 299 299 299 299 298 298 298 298 298 298 298 298 298 298 297 297 297 297 296 295 293 292 290 289 289 288 288 287
320 320 319 321 322 323 321 320 321 319 318 320 321 325 327 324 322 317 312 311 312 312 313 313 313 314 315 317 318 319 320 321 322 323 323 323 323 323 324 323 322 321 320 320 319 318 316 316 316 314 311 310 311 312 313 312 312 311 310 310 308 306 305 304 303 301 300 299 299 299 299 299 298 298 298 298 298 298 298 298 298 298 297 297 297 296 296 295 293 292 290 289 288 288 288 288 287
320 320 318 319 322 323 321 320 321 323 323 320 320 326 329 327 326 321 314 312 312 311 311 312 313 314 315 316 317 318 319 320 321 322 322 322 322 323 324 323 322 322 320 320 319 317 316 316 315 313 311 312 313 313 313 312 311 310 310 309 307 306 305 303 301 300 299 299 299 299 299 298 298 298 298 298 298 298 298 298 298 297 297 297 296 296 295 294 292 290 289 288 288 288 288 288 287
320 318 320 318 319 320 320 321 323 324 324 319 318 324 328 329 327 321 315 314 313 311 311 311 312 314 315 315 317 318 319 320 321 321 321 322 322 322 323 323 323 322 321 320 318 316 316 316 315 313 312 313 314 313 312 311 311 310 309 308 306 305 304 302 300 299 299 299 299 299 298 298 298 298 298 298 298 298 298 297 297 297 297 296 296 295 294 293 291 289 288 288 288 288 288 287 287
320 317 319 318 318 319 320 323 323 320 320 319 319 321 324 330 327 317 315 316 315 313 312 311 311 313 314 316 317 318 319 320 320 321 321 322 322 322 323 323 322 322 321 320 316 315 316 316 314 313 313 314 314 313 312 311 311 310 308 307 305 304 302 300 299 299 299 299 299 298 298 298 298 298 298 298 298 298 297 297 297 296 296 296 295 294 293 291 289 288 288 288 288 288 287 287 287
318 316 318 317 318 319 320 321 320 318 321 323 321 319 322 329 325 314 314 320 321 320 316 313 312 312 313 315 317 318 318 319 320 320 321 321 322 322 322 322 322 321 320 318 315 314 316 315 314 313 314 315 315 314 313 312 310 309 307 305 304 303 301 299 299 299 299 299 298 298 298 298 298 298 298 298 298 297 297 297 297 296 296 295 294 293 291 290 289 288 288 288 288 287 287 287 286
316 315 317 317 317 318 319 320 321 322 325 325 321 318 320 328 327 317 316 322 324 324 320 314 312 313 313 314 316 317 318 318 319 319 320 321 321 322 322 321 320 319 319 316 315 315 315 315 314 314 314 315 316 315 313 312 310 307 306 304 303 301 299 299 299 299 299 298 298 298 298 298 298 298 298 298 297 297 297 296 296 295 295 295 293 291 289 289 289 289 288 288 287 287 287 286 286
315 317 318 319 321 322 323 323 324 326 326 321 316 315 317 324 330 324 321 324 323 324 325 318 312 312 314 314 315 317 317 318 318 319 319 320 320 321 321 320 319 318 317 315 315 315 315 315 314 314 315 316 316 315 313 311 309 307 305 303 301 300 299 300 300 299 298 298 298 298 298 298 298 298 298 298 297 297 296 296 295 295 295 294 291 289 288 288 289 289 288 288 287 287 287 287 286
317 320 320 321 323 323 324 324 324 326 324 317 313 313 315 322 327 321 319 322 319 319 325 322 314 312 312 314 315 316 317 317 318 318 318 319 320 321 321 320 319 317 316 315 315 315 314 315 314 314 315 316 315 314 313 310 308 306 304 302 300 300 300 300 300 299 298 298 298 298 298 298 298 298 298 297 297 296 296 295 295 295 294 292 290 288 288 289 289 289 288 288 287 287 287 286 286
319 321 321 322 322 323 324 323 322 323 320 313 311 314 317 321 324 318 318 322 316 310 312 312 309 309 311 312 314 315 316 317 317 318 318 319 321 321 321 320 319 318 317 316 315 315 314 314 314 314 315 315 315 314 312 310 307 306 303 301 300 300 300 300 299 299 298 298 298 298 298 298 298 298 297 297 296 296 295 295 295 295 293 290 288 288 288 289 289 288 288 287 287 287 287 286 286
320 320 322 324 323 323 324 319 318 320 317 312 311 315 320 323 321 318 318 316 309 304 305 307 307 309 310 311 312 315 316 317 318 318 318 319 321 321 321 320 319 319 318 316 315 314 314 314 314 314 314 313 314 314 311 309 307 304 302 300 300 301 300 300 299 298 298 298 298 298 298 298 298 297 297 296 296 295 295 295 294 294 291 289 288 288 289 289 289 288 288 287 287 287 287 286 286
317 315 319 323 322 324 324 320 320 319 315 313 312 316 324 325 319 313 309 306 304 304 306 308 310 312 312 311 312 315 315 316 317 318 318 319 320 321 321 320 319 319 318 316 314 314 314 314 314 314 313 312 313 313 311 308 306 303 301 300 300 300 300 299 298 298 298 298 299 299 299 298 297 297 296 296 295 295 295 294 294 292 289 288 288 288 289 289 288 288 287 287 287 286 286 286 285
314 310 317 317 315 320 319 314 316 316 316 317 315 318 322 319 311 306 304 304 305 305 306 309 311 313 314 313 313 315 316 316 317 317 318 319 319 320 320 320 319 319 318 316 314 314 313 314 314 313 313 312 312 312 310 307 304 301 300 300 300 300 299 299 298 298 298 299 299 299 298 298 297 296 296 295 294 295 294 294 292 290 288 288 288 288 289 288 288 288 287 287 286 286 286 286 285
316 312 313 309 307 316 318 311 309 312 317 318 315 319 321 315 310 307 307 309 309 306 306 308 311 312 314 314 314 315 316 317 317 317 318 319 319 319 320 319 318 319 317 315 314 313 313 313 313 313 314 313 312 311 308 305 302 300 300 300 300 300 299 298 298 298 299 299 299 298 298 297 296 296 295 294 294 295 294 292 291 289 288 288 289 289 288 288 288 287 287 287 286 286 286 285 285
318 316 310 304 305 312 317 316 314 313 316 317 315 316 318 317 316 312 308 311 314 311 306 305 308 312 313 314 314 315 316 316 317 317 317 318 318 318 319 319 318 318 315 313 313 313 312 311 311 312 312 311 310 309 306 302 300 300 300 300 300 300 299 298 298 299 299 299 298 297 297 296 295 295 294 294 294 294 292 291 290 288 288 288 289 288 288 288 288 287 287 286 286 286 285 285 285
308 310 305 305 311 315 315 315 317 316 313 314 315 311 309 313 319 316 312 314 316 314 309 306 308 311 312 314 315 315 316 316 316 317 317 317 317 318 319 318 318 316 313 312 312 311 311 310 310 312 312 311 310 308 304 301 300 300 300 300 300 299 298 298 299 299 299 298 297 297 296 295 295 295 294 294 294 293 292 290 289 288 288 289 288 288 288 288 287 287 286 286 286 285 285 285 285
306 308 305 307 313 313 310 309 313 315 311 309 312 313 312 312 316 318 316 317 318 316 314 310 307 310 313 315 316 315 316 316 316 317 317 317 318 318 318 318 318 317 314 312 311 310 310 311 312 313 312 311 310 306 302 300 300 300 300 300 299 298 298 298 299 299 298 298 297 296 295 295 295 295 294 294 293 292 291 289 289 288 288 288 288 288 288 288 287 287 286 286 285 285 285 285 285
309 312 309 308 306 304 305 305 305 309 312 311 308 313 321 314 310 314 314 315 316 314 314 309 306 310 313 313 316 316 316 316 316 316 316 317 317 318 318 318 318 316 313 312 311 310 310 312 313 313 312 311 307 303 300 299 299 300 300 300 299 298 298 299 299 298 298 297 296 296 295 295 294 294 294 294 293 292 290 289 288 288 288 288 288 288 288 287 287 287 286 285 285 285 285 284 285
303 306 305 306 305 307 312 306 300 303 308 310 306 310 322 313 306 312 311 307 306 305 306 307 306 310 312 312 315 314 315 316 316 316 316 316 317 317 318 318 317 315 312 311 310 310 311 313 313 312 311 308 304 300 300 299 299 300 300 299 298 298 298 299 299 298 297 297 296 295 295 294 294 294 294 293 292 291 290 289 288 288 288 288 287 287 287 287 287 287 286 285 285 285 284 284 284
Wind_Speed
7 6 5 5 3 3 3 4 3 1 2 1 1 1 1 1 2 4 4 2 2 2 5 13 18 17 9 6 9 12 8 3 3 1 6 10 16 21 20 20 20 18 16 15 14 14 13 12 11 9 8 8 9 9 10 9 7 8 8 7 7 8 9 11 12 12 13 14 14 15 16 17 18 19 20 20 21 21 22 23 24 24 24 24 24 23 22 22 21 20 20 20 20 20 20 20 20
6 6 5 3 3 3 3 3 2 0 3 1 2 2 1 1 3 4 4 3 3 8 15 20 20 15 13 14 15 13 10 8 7 8 15 19 21 23 22 21 19 17 16 15 14 14 13 13 11 9 8 9 10 10 10 10 9 9 8 7 8 9 10 11 11 12 12 13 14 15 16 18 19 19 20 20 21 22 23 24 25 25 26 25 25 24 23 22 22 21 21 21 21 21 21 21 21
6 5 3 3 1 2 2 2 1 2 3 3 3 2 1 2 4 3 4 8 13 19 23 22 19 14 13 13 10 6 6 9 14 16 19 22 24 23 23 23 20 17 16 16 14 14 13 12 12 9 9 9 9 11 11 11 11 10 9 8 8 9 10 10 11 11 12 13 14 16 18 19 19 20 20 21 22 23 24 25 26 26 27 26 26 25 24 23 22 22 22 22 21 21 21 21 21
6 4 3 2 0 2 2 2 1 4 3 4 2 3 2 4 5 5 11 19 19 17 16 15 11 8 8 9 8 8 7 10 15 18 19 22 24 22 24 24 21 18 17 16 14 14 13 12 11 8 8 9 9 10 11 11 11 10 9 9 9 9 9 10 11 11 12 14 16 17 18 19 19 20 20 21 22 23 25 26 27 27 27 26 26 25 24 23 23 23 23 22 22 22 22 21 21
6 4 2 1 0 1 2 2 1 3 4 4 2 3 4 6 8 10 15 17 12 9 11 11 7 7 11 10 8 8 9 12 14 16 18 22 23 23 24 23 21 19 17 16 15 14 12 11 9 7 7 8 10 10 11 10 10 9 9 9 9 9 10 10 11 12 13 15 17 18 18 19 19 20 20 22 23 24 25 26 27 27 27 26 25 24 23 23 23 23 23 22 22 21 21 21 21
5 3 1 0 0 0 2 2 2 2 4 4 3 4 6 9 11 14 15 12 8 9 11 11 11 11 11 10 9 11 15 15 15 16 19 23 24 25 24 22 22 19 17 16 14 13 12 11 9 7 7 8 9 10 10 10 9 9 9 9 9 9 10 11 11 13 15 16 17 17 18 18 19 20 21 22 23 25 26 26 27 28 28 27 25 23 23 22 22 22 22 22 21 20 20 20 20
5 2 1 2 1 1 2 3 4 3 3 3 3 5 10 12 15 16 13 8 8 9 10 15 19 14 8 9 10 13 17 16 16 18 21 24 24 26 24 22 23 20 18 17 15 14 12 10 9 7 7 8 10 10 10 9 9 8 8 9 9 10 10 11 12 14 15 16 16 17 18 19 20 20 21 23 24 25 25 26 27 27 27 26 24 22 22 21 21 20 20 20 20 19 19 19 19
4 1 2 3 1 2 2 3 4 3 1 1 1 5 12 17 20 14 8 6 6 8 13 18 19 11 5 7 8 12 17 16 19 21 23 25 25 27 25 23 24 22 20 18 16 14 12 9 8 6 6 9 10 10 9 9 8 8 8 8 9 10 10 11 13 14 15 15 16 17 18 19 19 20 22 23 24 24 25 25 26 27 27 26 24 22 22 21 21 20 20 20 19 19 19 19 19
2 1 1 2 2 1 1 1 3 2 2 1 3 8 15 19 17 10 7 6 9 14 16 15 12 9 9 8 9 13 16 17 21 23 24 26 27 27 24 23 23 23 21 19 17 14 12 9 7 6 7 9 10 10 9 8 8 8 8 8 9 10 11 12 13 14 14 15 16 17 17 18 19 20 22 23 23 24 24 25 26 27 27 26 25 23 23 22 22 21 20 20 19 19 19 19 19
0 1 1 2 2 2 1 1 2 1 2 1 4 13 19 18 13 9 9 8 12 15 13 11 9 14 16 10 10 14 16 20 24 23 25 29 29 25 25 24 22 22 20 18 16 13 10 8 7 8 8 9 10 9 8 8 7 7 8 8 9 10 11 11 12 13 14 15 15 16 17 18 19 20 21 22 23 23 24 25 26 28 28 27 25 24 24 23 22 21 20 20 19 19 19 19 19
0 1 0 2 2 3 4 1 2 1 1 3 5 14 18 16 14 11 11 12 11 13 12 10 11 20 19 10 11 15 18 22 24 25 28 31 28 25 25 24 22 21 19 17 14 11 8 8 8 8 9 9 9 9 8 7 7 7 8 9 9 10 10 11 12 13 13 14 15 16 17 18 19 20 21 22 23 23 24 25 27 28 28 26 25 24 23 23 22 21 20 19 19 19 19 19 19
1 1 2 1 3 3 4 3 2 2 3 3 4 10 13 14 14 10 13 13 12 13 11 10 16 23 14 7 13 17 20 23 25 27 30 31 28 26 23 22 22 19 17 15 13 10 8 8 9 8 8 8 8 8 7 7 7 8 8 9 9 9 10 10 11 12 13 14 15 16 17 18 19 20 21 22 22 23 24 26 27 28 27 26 25 24 23 22 21 20 20 19 19 19 19 19 20
2 1 3 0 2 3 5 4 4 5 4 2 3 9 12 12 12 14 16 14 12 11 6 11 24 20 9 8 15 19 22 24 26 28 31 31 29 27 24 23 21 18 16 14 11 9 9 10 10 9 8 8 8 8 7 7 7 8 8 9 9 9 9 10 11 12 13 14 15 16 17 18 19 20 21 22 23 24 26 27 27 27 27 25 24 23 22 21 20 20 19 19 18 19 19 20 21
4 2 4 0 0 2 4 4 6 6 4 2 4 11 13 10 11 18 21 13 6 8 9 18 25 14 10 11 13 21 25 25 29 30 32 31 29 27 25 23 20 17 15 13 11 10 10 10 10 10 8 8 8 7 7 7 7 8 8 8 8 8 9 10 11 12 13 14 14 15 17 18 19 20 21 22 24 25 26 27 27 27 26 25 24 22 21 21 20 20 19 19 19 20 20 21 22
9 3 3 0 0 2 3 3 7 7 4 3 4 12 14 11 13 18 18 11 6 13 18 21 18 9 14 14 13 26 28 28 30 30 31 29 28 26 23 22 19 17 14 12 12 10 10 10 10 10 9 8 7 7 6 6 7 7 7 7 7 8 9 9 10 12 13 13 14 15 17 18 19 20 22 23 25 26 27 27 27 27 25 24 23 22 21 21 20 20 20 20 20 20 21 22 22
13 6 3 0 1 3 3 4 7 7 4 4 9 15 14 11 15 13 10 13 16 19 18 16 13 10 16 17 21 31 29 29 30 28 29 27 26 24 23 21 17 16 14 12 11 11 11 11 11 9 8 7 7 6 6 6 6 6 6 6 7 8 8 9 10 12 12 13 14 15 17 17 19 21 23 24 25 26 27 28 28 26 25 24 23 23 22 21 20 20 20 20 21 21 22 22 23
12 7 1 2 3 3 4 5 7 6 4 8 15 18 12 7 11 12 11 19 22 18 15 12 12 15 18 19 28 33 29 30 28 27 27 25 24 23 23 20 16 15 14 13 12 12 13 12 11 9 8 7 6 6 6 6 6 6 6 6 6 6 7 9 10 11 12 13 14 15 16 17 20 22 24 25 26 26 27 28 27 26 25 24 23 23 22 21 21 20 21 21 21 22 22 23 23
11 5 4 5 3 3 4 5 6 7 7 11 16 18 15 7 9 17 16 18 21 17 15 15 16 18 18 24 32 31 29 29 27 27 26 24 24 22 22 20 16 14 14 14 13 14 13 13 12 9 8 7 6 6 5 5 5 5 5 5 5 6 7 9 10 11 12 12 14 15 16 18 21 23 24 25 26 27 28 27 26 25 25 24 23 22 22 21 21 21 21 21 22 23 23 24 24
7 2 4 5 5 2 2 6 6 7 11 13 15 19 19 12 15 19 12 11 17 16 14 18 22 21 22 29 32 30 29 29 28 27 25 24 23 21 21 19 17 15 14 14 14 15 13 12 12 9 7 6 6 5 5 5 4 4 4 4 5 6 8 9 10 11 11 12 14 15 17 19 21 23 25 25 26 27 27 27 26 25 25 24 23 22 22 21 21 21 21 22 22 24 25 26 26
4 2 5 4 4 1 0 6 6 8 15 15 13 18 19 16 17 16 12 12 11 9 13 20 24 26 29 32 30 30 30 29 28 26 24 24 21 19 19 18 17 16 15 14 15 14 13 12 11 9 8 6 6 5 4 4 4 3 2 3 5 6 7 8 9 11 11 13 14 15 18 20 22 24 25 25 26 27 27 26 25 25 25 24 23 22 22 22 22 21 22 23 24 25 27 27 27
4 3 4 2 3 1 2 8 10 13 17 15 13 16 15 15 16 17 18 12 5 7 16 23 28 32 35 33 31 30 29 29 28 25 24 22 20 19 18 18 17 16 16 15 15 14 13 11 9 9 7 6 5 4 4 3 3 2 2 4 5 6 7 8 9 11 11 13 14 16 18 20 22 24 25 25 26 27 26 26 26 26 25 24 24 23 23 23 23 23 23 24 26 27 28 28 28
4 2 2 2 2 1 2 12 18 17 19 16 14 12 11 13 14 15 14 6 5 13 19 26 32 35 36 35 33 30 29 28 27 26 23 20 20 19 17 18 17 17 16 15 15 14 13 12 9 8 7 6 5 4 3 2 2 1 2 4 5 6 7 8 9 11 12 13 15 17 18 20 23 24 25 25 26 27 27 26 26 26 26 25 24 24 24 24 24 25 25 26 27 27 27 28 27
4 1 3 4 4 3 3 14 21 22 24 17 13 12 14 15 11 8 8 6 8 16 21 28 32 34 36 34 32 30 28 27 26 25 22 20 20 18 18 18 17 17 16 15 14 13 12 11 9 8 7 5 4 4 3 2 1 1 2 3 5 6 7 8 10 11 12 13 15 17 19 21 23 24 25 26 27 27 27 27 27 27 26 25 25 25 25 25 25 26 26 27 27 27 27 26 26
5 1 3 5 9 8 5 15 20 22 21 17 18 17 14 12 8 7 10 10 12 17 22 30 33 35 35 33 32 30 28 27 25 23 22 21 19 18 18 17 17 16 16 15 13 12 10 9 8 7 6 5 4 3 3 2 1 1 3 3 5 6 7 8 10 11 12 14 16 18 20 22 23 24 25 27 28 27 27 28 27 27 25 25 25 25 25 26 27 27 28 28 28 28 27 26 26
4 2 4 6 11 13 11 15 18 21 20 22 23 16 12 13 11 8 7 10 16 18 25 32 35 35 35 34 32 29 27 26 25 24 22 21 20 19 18 17 17 15 14 13 12 10 9 7 7 6 5 5 4 4 3 2 1 2 3 4 5 6 7 9 10 11 13 15 17 19 20 22 23 24 26 27 27 27 28 28 27 26 25 25 25 26 27 27 28 29 29 29 29 29 28 27 27
6 6 8 9 12 15 17 16 17 19 20 24 20 12 14 16 12 8 4 10 17 21 29 32 34 34 33 32 30 29 27 26 25 24 22 21 21 20 18 17 16 14 13 11 10 9 8 6 6 5 5 4 3 3 3 3 2 3 4 4 5 6 8 9 10 11 13 16 18 19 21 22 23 24 26 27 27 28 28 28 26 25 25 25 26 27 28 29 30 31 31 31 30 29 28 28 28
15 16 15 15 15 15 17 18 17 14 11 18 18 9 11 10 6 4 3 12 18 24 29 30 32 32 31 29 29 28 27 26 25 24 23 22 21 19 18 17 15 14 12 10 9 8 6 5 5 5 4 3 3 2 3 3 3 4 4 4 5 7 8 9 10 12 14 16 18 20 21 22 23 25 26 27 27 28 28 27 25 24 24 25 27 28 29 30 31 32 32 31 30 29 28 29 28
26 23 16 14 16 15 13 15 15 12 5 12 20 11 8 7 4 3 6 13 17 24 27 26 29 30 30 29 28 27 26 26 25 25 24 22 19 17 15 15 15 13 12 10 7 6 6 4 4 4 3 2 2 2 3 3 3 3 4 5 6 8 9 10 11 13 15 17 19 20 21 22 24 25 26 27 28 28 27 26 24 24 25 26 28 29 30 30 31 31 31 30 29 29 28 28 27
25 21 10 6 11 10 7 6 10 11 3 9 19 11 5 5 4 5 9 13 17 22 23 23 25 27 28 27 27 27 25 26 25 24 22 19 17 15 13 13 13 12 11 9 6 5 4 3 3 3 3 2 2 2 2 2 2 3 4 5 7 8 9 11 12 14 16 17 19 20 21 22 24 26 27 28 28 28 26 25 24 25 26 27 28 29 30 31 32 31 30 29 29 28 28 27 26
12 13 7 4 6 4 5 3 8 10 4 5 10 6 2 3 3 6 9 13 18 20 22 22 21 23 26 25 25 25 24 24 22 21 19 17 16 14 12 11 12 12 10 8 6 4 3 2 3 3 3 3 2 2 1 1 2 3 4 5 7 8 10 11 13 15 16 18 19 20 21 23 25 26 27 28 27 27 25 24 24 26 27 28 29 30 30 31 32 32 30 29 29 29 28 28 27
4 7 5 3 4 2 4 4 5 6 2 4 5 3 3 3 4 5 8 13 16 16 18 21 19 19 23 24 24 24 24 22 20 18 18 17 16 14 12 11 12 11 9 7 5 3 2 2 3 3 3 2 2 2 1 0 1 3 4 6 7 9 10 12 13 15 17 18 20 20 22 23 25 27 27 27 27 26 25 24 25 27 28 28 29 30 31 31 30 31 31 31 30 29 28 28 28
2 4 5 3 3 1 3 4 4 1 2 4 4 3 2 3 6 6 8 11 13 13 13 17 18 18 20 22 23 23 23 21 19 18 17 17 16 15 13 13 12 10 8 6 4 3 1 2 3 3 3 2 3 3 2 1 1 2 4 6 8 10 11 13 14 16 17 19 20 21 22 24 25 26 27 26 26 25 25 25 26 27 27 29 30 31 31 31 29 29 30 32 32 30 30 29 28
1 1 5 6 5 1 2 3 4 3 3 3 2 4 2 2 8 8 8 9 10 11 11 14 15 16 18 20 20 21 21 20 19 18 18 17 16 16 15 13 11 9 7 6 4 2 0 2 3 3 3 2 3 3 3 2 1 3 5 7 9 10 12 13 15 16 17 19 20 21 23 24 25 25 26 25 25 25 25 26 26 27 28 29 31 31 31 30 29 28 28 30 31 31 31 30 30
0 2 3 5 7 4 2 1 1 3 4 2 3 4 3 3 8 9 7 8 8 9 9 12 13 14 16 18 19 20 21 20 19 18 18 17 17 17 15 13 11 9 8 6 4 2 1 3 4 5 4 3 3 3 3 2 2 3 5 7 9 11 12 14 15 16 18 19 20 22 23 24 25 24 25 24 25 25 25 25 26 27 29 30 31 31 30 28 28 28 28 28 30 32 32 33 33
8 6 5 6 6 6 5 2 1 2 2 3 5 6 5 4 6 8 7 8 8 7 7 10 12 13 15 17 18 19 21 21 20 20 20 18 18 16 15 14 11 9 8 6 4 2 3 4 5 6 5 3 2 2 2 2 2 3 5 8 9 11 12 13 15 17 18 19 20 22 23 24 23 23 24 24 24 24 24 25 26 28 29 30 30 29 29 28 27 27 27 28 28 30 32 33 33
11 8 7 8 7 5 4 1 1 1 2 4 5 5 5 5 5 6 8 9 8 7 7 8 10 12 14 16 18 19 20 22 21 21 20 18 18 17 16 15 12 10 8 5 4 3 4 6 7 8 6 3 2 2 2 1 2 4 6 8 9 11 12 13 15 17 18 19 21 22 23 23 22 23 23 23 23 23 24 25 27 28 29 30 30 29 29 29 28 27 27 28 28 30 31 32 31
10 9 8 9 8 5 3 1 3 2 1 4 4 4 5 5 5 5 8 8 7 7 7 8 9 11 14 15 17 19 20 21 21 21 20 19 19 18 18 16 13 11 9 6 4 4 5 7 9 9 6 4 3 3 2 1 2 5 7 8 10 11 12 14 15 17 19 20 21 22 22 22 22 22 22 22 22 23 24 25 27 28 29 30 29 30 30 29 28 27 27 28 29 31 32 32 31
9 8 9 8 6 5 3 2 2 5 2 3 3 3 5 4 5 5 7 7 7 11 11 10 10 10 12 15 17 19 20 20 21 21 21 21 20 19 19 18 15 12 9 7 5 5 6 8 9 8 6 4 3 2 1 2 3 5 7 9 10 11 13 14 16 17 19 20 21 21 21 21 22 22 22 22 22 23 25 26 27 29 29 29 28 29 29 27 27 27 28 28 28 30 31 32 31
9 6 8 7 6 7 4 3 3 6 3 1 3 2 2 3 3 5 9 8 7 11 13 12 12 12 13 16 17 18 20 21 21 22 22 21 20 20 19 18 16 13 11 9 7 6 7 8 9 8 6 5 4 2 2 3 5 6 7 8 10 12 13 15 16 17 19 20 20 20 20 21 21 21 21 21 22 24 26 27 28 29 29 28 28 28 27 26 26 27 29 30 29 29 27 29 30
6 5 6 6 6 7 3 1 3 4 2 2 2 2 1 2 3 4 9 11 9 10 12 12 14 15 15 16 17 18 20 21 21 22 22 20 19 20 19 19 18 15 13 10 8 7 7 9 10 8 6 5 3 2 2 4 6 7 7 8 10 12 13 15 16 17 18 19 19 20 20 21 21 21 21 22 23 25 27 27 28 29 29 29 29 27 25 26 27 28 29 30 31 30 27 27 29
3 4 5 8 8 6 5 5 3 3 4 2 4 2 3 1 2 3 5 9 10 11 12 13 15 16 17 17 18 19 20 21 22 22 21 19 19 20 20 20 20 17 15 11 8 7 7 9 9 8 6 4 2 2 3 5 6 7 7 8 10 12 14 15 16 17 18 18 19 19 20 20 20 20 21 22 24 26 27 28 28 29 29 29 27 25 25 26 27 28 30 30 30 30 28 28 28
2 1 3 7 8 9 10 9 5 3 2 1 3 2 3 2 3 3 3 4 7 10 13 15 18 19 20 20 21 21 21 21 21 20 20 19 19 20 20 21 21 19 16 12 9 9 9 11 10 7 5 3 1 3 4 5 6 7 8 10 11 12 14 15 16 16 17 18 18 19 19 19 19 20 22 24 25 26 27 28 28 28 28 27 24 24 24 25 26 28 29 29 29 28 28 27 26
3 2 4 3 5 12 14 11 5 3 2 1 2 2 1 3 4 2 2 4 5 7 11 16 20 22 23 24 24 24 23 22 21 20 19 19 19 19 20 22 21 19 16 13 11 11 11 11 10 7 5 3 2 3 4 6 7 9 10 11 12 13 13 14 15 16 16 17 18 18 18 19 19 21 23 24 26 26 27 28 28 28 27 24 23 23 23 24 26 28 28 28 28 27 27 27 26
4 4 8 6 6 11 12 8 4 2 3 2 3 3 1 2 4 2 0 3 5 7 10 14 19 23 25 26 26 26 26 24 22 20 19 19 19 18 19 20 20 18 16 14 14 14 13 12 10 8 6 4 3 4 6 7 9 10 11 12 12 12 13 14 14 15 16 16 17 17 18 18 20 22 23 25 26 26 27 27 28 26 24 23 22 22 22 24 26 27 27 26 25 25 25 25 26
1 4 8 6 6 7 6 7 4 2 3 1 3 2 1 3 4 2 2 2 7 9 9 11 18 23 25 28 29 28 27 26 23 21 19 19 19 19 19 18 17 16 16 16 17 16 14 13 11 9 7 4 4 5 7 8 10 11 11 12 12 12 12 13 14 14 15 15 16 16 17 19 21 23 24 25 26 26 27 27 26 24 22 21 21 21 23 24 26 26 25 24 23 23 24 24 24
3 7 9 6 5 5 5 5 4 3 3 1 2 2 1 4 4 1 1 2 7 9 6 7 16 24 27 29 30 30 28 27 26 23 20 19 19 20 20 17 15 16 17 19 19 17 15 14 12 10 7 5 6 7 8 10 11 11 12 11 11 12 12 13 13 14 14 14 15 16 18 20 22 23 24 25 26 26 27 25 23 21 20 20 20 21 23 24 25 25 25 23 22 22 23 23 23
9 9 8 6 5 4 4 3 4 4 2 2 2 3 2 2 4 2 2 4 5 5 4 3 10 19 25 29 31 32 31 29 28 24 21 20 20 20 19 17 16 17 18 19 18 17 17 15 14 12 7 6 9 8 9 11 11 11 11 11 11 12 12 13 13 13 13 14 15 16 18 20 22 23 24 25 26 26 25 23 20 19 19 19 20 22 23 25 25 25 24 22 22 22 22 22 22
7 5 5 5 3 3 3 3 3 3 1 3 2 1 3 1 5 4 4 6 4 4 4 4 5 10 17 24 29 32 32 31 28 25 22 21 21 21 21 19 18 19 18 16 16 17 18 16 15 13 9 8 9 8 10 11 11 11 11 10 11 12 12 13 13 12 13 13 15 17 19 20 22 23 24 25 25 24 22 20 19 18 18 19 20 22 24 25 25 24 23 21 21 22 22 22 21
4 5 5 4 2 1 2 1 1 1 1 3 2 1 2 4 6 5 5 7 5 4 5 7 9 11 13 17 23 28 30 30 29 26 23 23 23 23 22 22 21 20 17 14 14 17 18 16 15 13 9 9 8 9 11 11 10 11 10 11 11 12 13 12 12 12 12 13 15 17 19 20 22 23 24 24 23 21 19 18 17 17 17 19 21 23 23 24 24 23 21 20 21 22 21 21 21
4 5 3 2 3 2 1 0 1 0 2 3 2 1 1 3 5 4 5 5 4 4 7 9 11 14 12 11 16 23 27 29 30 27 24 24 25 24 23 23 22 19 15 13 14 16 17 16 15 12 10 9 8 9 11 10 10 10 10 11 12 12 12 11 11 11 12 13 15 17 19 20 22 23 22 21 20 18 17 17 16 16 17 19 21 22 23 23 23 22 20 20 21 21 22 21 21
1 1 3 3 3 3 3 2 1 2 1 3 3 1 2 2 2 4 5 7 6 5 7 8 9 10 7 7 11 18 23 26 28 28 26 25 24 24 24 23 21 17 15 13 13 14 15 15 14 12 11 9 8 9 10 10 9 10 11 12 12 12 11 10 10 11 12 14 15 17 19 21 21 21 20 19 17 17 16 16 15 16 18 19 21 22 23 23 23 21 20 19 20 21 22 21 21
1 1 2 2 1 3 3 2 3 3 2 1 1 2 3 3 3 4 5 7 6 4 6 6 6 5 3 6 9 14 19 23 26 28 27 25 24 24 23 23 20 17 15 14 12 12 14 15 15 12 11 10 8 9 10 9 10 11 12 11 11 10 10 10 10 11 12 14 16 18 19 20 20 19 18 17 16 16 15 14 15 16 18 20 20 21 22 23 22 21 19 19 20 21 21 21 21
0 2 2 1 2 6 5 2 1 3 2 1 1 3 4 3 3 4 6 7 6 4 5 5 3 1 3 6 9 12 16 21 24 27 28 27 25 23 22 21 19 17 16 15 12 12 14 15 14 12 11 10 9 9 10 9 10 12 12 11 10 10 9 9 10 11 13 15 17 18 18 18 17 17 16 16 15 14 13 14 15 17 18 20 20 21 22 23 22 21 19 19 20 20 21 21 21
1 2 3 1 2 4 4 2 3 4 1 2 1 2 4 2 2 4 6 5 7 5 4 4 2 1 4 7 9 11 14 18 22 25 26 26 25 23 21 20 18 16 17 16 13 13 14 14 12 11 11 9 9 10 10 10 11 12 11 10 10 9 9 9 10 12 14 15 16 17 17 16 16 16 16 15 14 13 13 14 15 17 18 19 20 21 22 23 22 21 19 19 19 20 21 21 21
3 5 4 2 2 1 2 2 1 2 0 3 4 3 3 3 4 3 3 5 7 6 4 4 3 4 5 7 9 11 13 16 20 23 24 24 23 22 20 19 18 18 17 16 15 15 15 13 12 12 12 11 10 11 11 11 12 12 11 10 10 9 8 8 10 12 14 14 15 15 15 14 15 15 15 14 13 12 12 13 15 16 18 19 20 22 22 23 23 21 20 19 19 20 21 21 21
4 4 2 2 2 2 1 2 2 2 1 1 3 3 3 5 5 4 6 8 7 6 4 5 7 7 6 7 8 10 12 14 17 20 21 22 21 20 19 19 19 19 19 18 16 15 14 13 13 13 13 12 12 12 11 11 12 11 11 10 9 7 7 8 10 12 13 14 14 14 13 14 15 15 14 13 12 12 12 13 15 16 17 19 20 22 23 23 23 22 21 19 19 20 20 21 21
3 3 3 2 2 2 1 2 2 2 2 2 1 3 4 5 3 5 6 7 7 8 6 7 10 10 8 7 7 8 10 12 13 16 18 20 21 20 20 20 20 20 20 19 17 16 15 14 15 14 14 13 12 12 12 12 12 11 11 9 7 6 6 9 11 11 12 13 12 11 12 14 15 14 14 13 12 11 11 13 15 16 18 20 21 22 23 23 23 23 22 20 20 20 20 21 22
2 1 1 2 2 3 3 1 2 2 2 2 2 2 6 5 2 4 5 4 5 6 8 9 11 11 10 8 8 8 8 10 11 14 16 19 21 21 21 21 21 22 21 20 18 17 16 16 16 15 14 14 13 12 12 12 12 11 10 8 6 5 7 9 10 10 11 11 10 10 13 14 15 15 14 12 11 10 11 13 15 16 18 20 22 23 24 24 24 24 23 22 21 20 21 22 22
Wind_Direction
297 303 297 303 291 198 171 149 136 1 82 127 229 154 199 165 115 105 118 151 118 54 98 125 138 142 129 129 125 97 66 100 134 94 145 139 143 151 147 141 138 136 134 133 129 124 120 114 109 109 108 104 109 124 132 130 134 125 111 100 79 68 64 61 57 54 52 48 46 43 41 38 35 32 29 26 24 22 20 19 17 14 12 9 7 5 4 2 2 1 0 359 358 358 358 356 356
296 299 299 305 280 214 188 136 129 344 83 133 247 169 202 17 90 131 152 159 123 114 117 120 123 115 104 113 113 96 68 78 97 106 127 133 142 147 144 143 139 135 135 133 130 125 120 116 112 108 100 95 101 109 115 115 115 115 109 94 77 69 65 62 59 56 53 50 47 44 41 36 34 30 27 25 23 22 20 18 15 12 10 8 6 5 4 3 3 3 1 1 0 360 359 358 357
293 294 293 297 276 190 158 89 116 143 121 168 238 251 156 101 146 157 135 125 118 114 113 116 110 95 97 103 95 88 86 99 111 118 127 136 145 144 143 145 138 136 138 135 134 128 122 118 114 110 98 92 100 106 107 106 106 105 100 88 78 73 69 66 62 58 55 52 48 43 39 36 32 29 27 25 24 22 19 16 13 11 8 6 5 4 4 3 2 2 1 1 1 360 359 358 357
297 290 286 297 170 155 101 64 135 138 158 179 220 253 148 141 154 128 126 124 119 118 119 117 96 82 105 105 96 93 107 123 123 127 132 143 148 142 141 142 136 138 141 137 136 131 126 123 121 116 97 95 106 110 109 106 103 99 93 87 82 78 74 69 63 60 57 52 47 42 39 35 32 30 28 26 24 21 18 16 13 10 8 6 4 3 3 2 1 1 360 360 359 358 357 356 355
298 288 285 290 168 175 99 86 106 127 189 175 168 221 156 146 143 132 135 128 120 130 134 123 96 98 107 103 110 109 125 134 131 135 138 147 147 139 143 141 137 141 142 139 139 137 131 130 129 115 96 102 114 114 110 104 100 96 92 90 86 81 75 69 65 61 55 49 45 41 37 34 32 30 28 26 23 20 18 15 12 9 7 5 4 3 2 1 359 359 357 357 357 355 354 352 351
290 285 276 204 332 156 117 125 136 193 225 164 155 193 149 150 148 136 134 123 109 128 132 120 113 108 95 87 101 122 134 135 135 140 142 148 143 138 146 144 141 143 141 141 143 142 139 139 135 116 103 110 120 118 111 105 100 95 93 90 85 79 73 68 64 59 52 47 43 39 37 34 32 30 27 25 22 19 17 14 11 8 7 5 4 2 1 0 358 357 355 353 354 352 350 349 348
280 283 160 144 63 49 126 154 178 218 231 169 185 171 149 154 150 138 132 125 108 122 126 120 119 108 89 99 106 127 136 137 141 143 146 149 141 138 148 149 146 144 143 146 146 147 145 142 132 115 111 120 127 122 113 107 100 96 93 88 83 77 72 68 62 55 49 45 41 38 36 34 32 29 26 23 21 18 15 11 9 7 6 5 4 2 1 0 358 356 354 352 352 350 349 347 346
269 285 102 125 89 20 105 165 209 205 196 228 207 155 152 153 151 145 143 139 131 131 125 129 129 115 119 127 119 137 137 139 144 144 148 147 140 142 150 152 152 150 149 151 152 151 147 137 123 112 121 131 131 121 113 108 101 99 94 88 83 77 72 66 59 52 47 44 40 37 35 33 30 27 24 21 19 16 12 9 7 6 5 4 4 3 2 0 359 357 354 353 351 350 349 348 346
247 218 99 124 148 52 96 197 217 208 284 287 111 132 143 148 148 144 130 110 129 132 129 140 138 124 141 134 127 143 139 139 144 145 147 144 143 148 151 156 159 157 156 157 154 147 138 127 117 120 133 137 129 119 113 109 105 102 95 90 83 77 72 64 56 50 45 42 38 35 33 30 27 24 22 19 16 13 9 6 4 4 4 4 3 2 1 360 358 356 354 353 352 350 349 348 345
201 195 183 118 135 155 197 272 229 240 285 114 113 139 144 148 142 128 120 110 130 129 131 146 129 129 136 127 132 147 141 140 145 146 145 144 147 152 154 161 164 159 160 161 151 137 127 119 120 128 136 136 127 119 114 112 110 105 97 91 84 77 71 61 54 48 44 39 35 33 30 26 24 22 19 16 13 9 6 4 3 3 2 2 2 1 360 358 357 355 353 352 351 349 347 346 343
58 357 66 106 131 165 192 217 235 266 144 106 101 142 150 150 133 115 115 116 129 124 131 138 122 130 126 121 143 149 143 142 146 146 145 146 151 157 161 166 165 160 160 157 145 136 129 124 125 126 132 133 126 120 117 117 114 106 98 90 85 78 68 59 52 46 41 36 32 29 26 23 20 19 16 13 9 6 4 3 2 1 1 1 0 359 358 357 355 354 351 350 350 348 346 344 341
252 354 59 124 172 173 177 171 194 167 133 124 114 152 161 149 131 123 124 124 128 123 131 139 139 136 118 121 150 149 145 143 147 148 149 150 155 162 168 169 164 158 154 151 147 143 137 128 122 121 129 131 127 123 122 122 115 106 99 92 86 77 66 57 49 43 38 32 29 26 23 20 17 16 12 9 6 3 3 3 1 360 359 359 359 358 356 355 354 352 349 348 349 347 345 342 339
252 137 100 131 188 160 155 157 172 148 147 173 135 155 161 147 138 141 131 122 125 124 132 149 147 138 110 138 153 152 146 144 149 151 153 154 159 165 171 169 161 155 150 150 150 147 139 129 124 124 131 133 132 129 128 127 118 111 103 96 87 76 63 53 45 39 34 28 26 23 19 17 15 12 8 5 3 2 2 2 360 358 357 357 356 356 354 353 353 351 348 348 348 347 345 341 339
217 142 124 248 176 147 150 150 167 159 162 167 124 142 145 134 141 146 132 116 106 120 130 147 149 137 126 142 156 157 148 147 150 150 152 152 155 159 166 165 158 156 154 151 146 144 136 130 130 132 139 141 139 137 136 132 122 113 103 96 85 72 59 48 41 35 30 25 22 20 17 14 11 7 3 2 1 1 1 360 358 356 356 355 355 354 353 353 352 350 348 347 347 347 345 342 340
200 159 101 134 70 165 171 164 170 164 161 139 129 133 120 111 138 143 133 122 110 127 132 144 151 144 152 156 165 160 151 151 151 149 150 150 154 156 158 157 157 158 154 147 142 143 136 133 137 138 147 148 144 142 139 133 121 110 100 93 79 66 53 42 37 31 27 22 18 17 15 11 7 2 0 0 1 1 360 357 355 355 354 354 353 353 353 353 353 350 348 347 348 347 345 342 340
193 175 78 68 205 206 182 164 170 166 162 125 129 127 103 102 134 132 133 135 127 134 138 145 155 147 156 162 160 156 151 153 153 151 153 154 158 156 153 154 160 156 147 146 146 144 138 138 140 141 149 147 144 140 137 131 118 110 100 88 73 60 47 38 33 28 23 18 15 14 12 7 2 359 359 360 0 359 357 355 354 354 353 353 352 352 353 354 353 350 348 348 348 346 344 342 340
175 166 140 219 211 217 179 173 181 161 138 135 142 136 113 99 124 121 134 135 128 137 139 137 150 143 151 159 154 153 153 155 154 153 156 157 158 156 152 153 160 153 145 149 148 145 141 141 139 141 149 144 143 141 138 132 119 111 99 83 69 53 39 33 29 25 19 15 12 11 8 3 359 358 359 359 359 358 355 354 352 353 352 352 351 351 353 354 353 351 350 350 348 345 343 341 339
157 153 193 210 201 206 194 188 170 140 139 156 158 146 132 126 126 129 130 125 121 125 123 126 138 137 147 155 152 153 154 155 154 155 157 157 159 158 152 151 157 153 148 149 146 145 145 142 137 140 148 144 147 145 139 131 121 113 96 79 62 44 32 28 25 21 15 12 10 7 3 359 358 358 359 358 357 356 354 352 352 352 352 352 351 351 353 354 354 352 351 350 347 343 341 341 341
151 142 192 210 194 196 221 186 156 146 158 151 150 147 139 139 139 139 133 122 122 115 114 125 127 129 144 153 153 155 156 155 153 155 158 158 160 157 151 150 152 152 150 148 145 146 145 141 138 143 148 146 151 146 142 135 125 112 90 71 50 35 26 23 20 16 11 9 6 3 359 357 357 357 357 357 355 353 352 352 352 351 350 351 352 353 354 354 355 354 352 349 346 343 342 344 345
162 161 194 221 195 231 330 161 131 125 148 134 132 145 137 141 147 144 133 121 125 124 133 135 129 134 147 153 155 157 157 155 155 157 159 158 157 154 149 147 147 148 149 148 146 145 142 142 143 146 148 151 157 150 145 135 118 102 74 57 38 26 22 20 16 11 7 5 3 359 357 356 355 356 356 354 353 351 351 351 351 350 350 352 353 354 355 356 356 354 352 349 346 345 345 346 346
171 177 195 207 178 223 50 162 146 114 126 117 118 133 128 142 150 144 136 124 132 156 153 150 145 146 151 154 156 157 158 157 158 159 159 158 155 154 150 145 144 144 147 148 148 145 143 146 148 149 151 160 161 150 144 125 106 89 60 42 24 18 17 17 13 7 3 1 359 356 354 354 354 354 353 351 350 350 351 351 350 350 351 353 355 355 355 356 355 353 351 349 348 347 347 347 346
151 170 137 118 161 123 65 166 164 140 134 123 118 124 125 135 135 144 147 130 161 162 160 158 154 154 155 155 156 158 160 160 161 158 159 159 155 155 153 147 146 145 147 149 150 148 148 149 150 154 158 166 161 147 140 111 95 77 52 32 16 14 13 12 8 2 358 357 355 353 352 351 352 351 350 350 349 350 351 351 350 351 353 355 355 355 355 355 354 352 351 350 349 348 348 348 347
150 168 84 62 95 79 89 149 157 155 148 137 132 130 126 121 105 122 120 87 144 159 162 159 155 158 158 156 156 159 162 162 161 159 158 157 154 155 151 147 146 146 148 150 152 150 149 150 154 162 162 163 156 144 136 114 107 79 49 27 15 14 12 8 2 356 353 354 352 349 350 350 350 349 349 349 349 350 351 351 352 352 354 355 355 355 354 354 352 351 351 349 349 348 349 349 347
156 122 91 68 82 70 95 139 146 152 144 136 138 129 116 112 98 89 82 98 139 156 161 157 155 159 160 159 159 161 164 163 161 160 159 157 156 154 148 145 147 151 150 151 153 149 149 153 161 167 162 159 152 145 139 126 115 66 43 21 17 14 10 4 356 351 351 351 349 348 349 349 348 348 348 349 350 350 351 352 353 353 354 355 355 354 353 352 351 350 350 349 349 349 349 349 348
159 104 109 88 86 88 111 128 131 137 131 130 128 110 98 107 111 86 58 113 138 153 156 153 155 158 161 161 160 163 165 165 162 161 160 159 159 157 154 152 152 153 152 151 150 145 147 155 165 170 167 163 153 151 143 122 83 51 37 22 18 11 5 358 351 350 351 349 347 347 348 347 347 348 348 349 350 350 352 353 353 353 354 355 354 352 352 352 351 350 349 349 349 348 347 348 349
152 115 105 98 93 106 120 115 113 122 126 131 121 93 105 111 106 82 54 129 142 156 152 151 155 157 161 161 161 165 168 167 165 163 162 163 160 158 158 157 155 154 153 152 146 142 144 154 170 178 176 168 152 147 123 96 60 43 32 20 12 6 360 351 349 350 349 347 346 347 346 345 347 347 348 349 350 351 352 352 352 353 353 353 353 352 352 351 350 349 349 348 348 347 347 347 348
128 105 92 99 99 104 118 116 115 116 116 129 124 104 107 106 101 91 128 138 147 155 149 152 156 157 162 163 163 167 170 170 167 166 166 165 162 161 161 159 159 159 156 150 142 139 140 154 173 182 183 166 145 132 101 76 51 36 23 13 6 360 352 346 349 349 347 346 345 345 344 344 346 347 348 349 351 351 351 351 351 352 352 353 353 352 352 350 349 348 347 346 345 345 346 347 346
125 108 84 91 97 91 102 115 123 119 84 111 118 108 78 69 73 110 149 146 151 153 148 154 156 158 163 165 168 170 172 173 172 172 171 170 167 165 164 163 164 162 155 146 138 135 138 157 175 183 180 161 144 119 95 73 47 31 12 6 1 352 345 344 347 347 344 344 344 344 342 344 346 347 348 350 350 350 350 349 349 351 352 353 353 352 350 348 347 346 345 343 343 343 344 345 344
127 118 97 93 96 76 64 91 118 118 102 102 110 107 55 44 71 128 150 153 158 153 150 155 156 160 164 168 171 172 176 178 179 177 175 174 168 165 166 168 170 165 155 143 136 134 139 162 176 183 177 161 146 115 103 79 46 22 6 359 355 346 340 343 345 344 342 343 343 341 341 344 346 347 348 350 349 349 348 348 349 352 353 353 352 350 349 347 345 343 342 341 341 341 342 343 344
123 121 115 117 103 55 22 67 118 119 132 97 99 117 103 67 105 140 153 158 162 156 154 160 160 161 165 170 174 176 181 183 183 180 177 175 168 168 170 176 178 167 151 136 133 132 132 170 187 197 185 167 149 122 122 91 33 4 359 353 348 340 338 342 342 341 341 341 340 338 341 344 346 346 347 348 347 346 346 348 351 353 352 351 350 348 347 346 343 340 340 340 340 341 342 343 346
115 123 125 129 115 64 25 65 116 124 133 45 62 134 146 138 141 146 155 160 164 156 155 164 167 167 167 172 177 181 186 186 188 185 182 178 173 175 177 187 186 163 144 135 132 127 126 204 209 207 193 175 163 155 188 188 1 349 348 345 342 337 337 339 339 339 339 339 337 337 341 344 345 345 345 346 345 345 346 350 352 352 350 349 347 347 346 344 342 340 339 339 340 341 343 346 347
109 138 143 131 109 54 30 60 58 84 128 42 55 139 122 146 157 153 153 157 165 160 158 165 171 174 173 176 180 185 189 190 192 194 193 187 182 183 182 193 187 154 146 148 133 120 124 235 222 219 212 191 184 197 226 250 313 331 338 338 338 336 335 337 337 337 336 335 334 336 340 343 343 343 344 344 343 344 348 351 351 350 348 347 346 345 343 341 341 341 340 339 339 341 344 346 347
339 149 146 141 129 90 18 46 11 21 96 35 26 152 117 139 154 153 151 152 161 161 163 170 177 182 181 184 188 191 195 196 197 199 200 196 193 191 187 193 185 158 160 157 135 126 176 241 233 236 231 212 207 217 234 247 281 315 330 334 334 333 333 334 334 334 333 331 331 335 340 340 341 341 342 343 343 345 348 350 348 347 347 346 345 343 340 339 340 341 342 340 340 341 343 344 346
91 106 121 127 129 124 95 117 319 31 72 32 25 112 102 112 143 148 155 156 156 157 167 176 183 190 190 193 196 197 201 203 202 202 201 201 201 198 192 194 186 170 175 168 155 175 233 247 246 244 239 227 221 225 236 241 267 312 330 332 330 329 329 330 330 330 328 328 330 335 337 337 338 340 342 343 343 346 347 347 346 346 345 344 342 339 338 338 340 341 342 344 343 341 342 343 345
154 148 131 121 125 133 133 155 218 52 79 100 73 86 94 97 135 153 169 171 168 166 175 183 188 195 198 200 202 202 204 206 206 206 204 202 206 202 196 198 192 183 185 182 183 220 251 254 247 241 236 228 223 227 231 238 278 320 328 328 324 323 325 325 326 325 324 326 330 333 333 335 337 339 342 342 343 344 344 344 344 344 343 340 338 336 336 338 341 343 344 345 345 342 341 342 343
145 136 127 132 129 123 141 152 11 61 103 71 67 92 116 125 146 168 181 183 183 184 187 196 200 204 206 207 207 206 207 208 208 209 206 206 210 206 201 202 198 194 199 201 215 248 260 254 243 238 232 223 220 220 221 252 305 321 322 320 317 318 320 320 321 321 322 326 328 330 331 333 336 339 341 342 342 343 342 344 344 342 340 337 336 335 338 339 342 346 346 345 344 343 341 340 341
123 119 119 129 127 110 120 124 357 325 81 42 49 98 111 137 154 171 181 181 188 198 198 203 212 216 218 217 213 210 211 210 210 210 207 210 214 209 205 205 201 204 209 218 239 254 261 251 238 231 225 220 216 213 224 284 309 312 313 312 313 314 314 316 318 319 322 324 325 327 329 332 336 340 341 341 341 341 342 343 341 339 337 336 336 337 340 341 343 344 346 345 344 343 341 340 343
110 116 129 122 122 108 75 119 354 333 51 45 18 76 92 129 150 159 170 178 199 210 208 206 216 226 228 225 220 216 215 215 213 212 210 212 215 213 209 207 207 210 214 226 242 253 261 246 228 222 216 214 213 212 236 291 300 302 305 307 311 311 311 314 316 318 320 322 323 325 328 333 337 339 340 340 339 340 342 340 338 337 336 335 337 339 340 342 343 343 345 346 345 344 342 342 345
104 108 132 124 125 111 60 58 27 1 44 39 354 45 96 137 150 168 179 194 209 216 216 214 216 226 233 228 222 218 217 219 217 214 213 215 217 214 211 212 212 212 218 228 240 257 258 232 215 212 209 209 207 212 259 290 296 294 300 308 309 309 310 314 315 316 318 319 321 325 330 335 337 338 338 338 339 340 340 338 337 336 334 335 338 340 340 342 344 344 344 343 343 345 345 345 349
100 114 127 130 137 129 111 82 37 17 55 136 105 45 330 144 146 184 196 207 214 218 222 224 221 224 233 231 223 218 218 221 219 216 216 217 218 214 210 214 216 216 222 228 243 261 246 216 207 205 205 208 207 235 288 300 299 296 303 308 306 307 310 313 314 314 316 318 322 326 332 334 335 336 337 338 340 340 338 337 336 334 334 338 339 340 342 344 345 345 344 342 341 345 349 351 354
87 114 128 147 146 119 116 130 119 44 37 83 111 51 324 244 186 208 197 206 218 220 221 227 228 227 232 232 226 222 221 222 221 218 218 219 219 214 211 214 217 220 224 227 242 254 232 211 206 203 206 209 215 284 302 301 300 300 304 303 303 308 310 311 312 313 315 319 323 328 331 333 334 335 336 339 339 337 336 335 334 334 336 338 339 341 345 346 346 343 342 342 343 345 350 355 355
99 96 133 158 152 119 119 132 129 90 28 348 98 79 300 293 249 216 163 188 216 219 219 224 228 228 229 230 226 224 223 223 223 221 220 222 221 217 214 214 217 220 222 225 238 243 228 214 209 206 206 208 241 288 297 299 301 302 301 301 305 308 308 309 311 312 316 320 325 327 329 331 332 334 338 339 337 335 334 333 333 335 336 337 340 344 346 346 344 341 341 342 344 347 349 352 353
133 177 127 119 132 129 136 143 133 123 172 282 68 125 264 315 287 250 165 192 213 213 218 224 225 226 227 228 226 224 223 222 223 223 221 223 223 219 214 214 217 221 221 223 234 237 227 218 214 207 207 216 251 283 297 303 304 301 299 301 304 305 306 309 310 312 317 321 323 326 329 330 332 336 338 336 334 333 332 332 333 334 335 337 342 345 346 345 342 341 342 343 345 347 348 348 350
133 167 140 130 133 136 139 133 112 127 141 46 30 95 99 303 282 310 71 221 241 226 220 222 223 225 226 227 226 224 224 223 223 224 221 221 222 218 213 214 218 221 221 223 229 232 226 220 216 209 212 227 259 289 300 302 298 297 297 299 301 304 307 309 310 314 318 320 322 326 328 330 334 337 336 333 332 331 331 332 333 333 335 339 343 345 346 343 341 341 343 344 345 346 347 347 348
123 149 130 128 126 119 110 101 93 87 105 65 339 47 92 267 275 348 26 291 268 249 228 210 215 223 225 226 226 225 225 225 225 226 223 221 221 215 210 212 217 220 221 222 224 225 220 215 214 212 215 233 268 287 294 294 292 292 294 296 299 304 308 309 312 315 317 319 323 326 327 331 336 335 332 331 330 329 330 331 331 332 337 340 343 346 344 342 341 342 343 344 346 346 346 347 348
149 124 102 94 85 76 76 92 103 60 63 142 301 19 95 270 279 356 49 285 257 255 252 203 209 221 225 225 225 224 223 224 225 226 223 222 219 213 209 210 214 218 220 221 222 219 212 211 214 214 216 247 270 278 286 287 288 289 290 293 299 304 307 310 313 315 316 320 323 326 330 334 334 330 328 328 327 328 329 328 329 333 337 340 344 345 342 341 342 343 343 344 346 347 346 346 347
135 115 93 88 60 49 59 55 82 68 15 261 320 7 96 290 281 217 190 230 226 240 280 249 211 218 224 226 224 222 221 220 221 222 220 218 216 213 211 209 208 214 218 220 221 216 206 207 213 213 221 258 266 271 281 283 285 288 290 294 302 305 308 311 313 314 317 321 325 329 333 332 328 327 326 326 326 326 326 325 329 335 339 342 345 343 341 342 343 343 344 344 346 346 346 346 346
112 111 114 107 54 23 45 15 44 85 273 272 322 12 127 204 261 235 227 242 218 199 242 276 244 229 230 229 224 222 220 219 218 218 216 214 212 212 211 207 207 213 216 218 219 213 204 205 214 215 222 247 259 271 278 281 285 288 291 298 303 305 308 310 310 313 318 324 328 331 330 327 325 325 325 324 324 322 322 325 332 338 342 344 344 342 342 342 342 343 343 343 345 345 345 345 344
89 128 130 113 97 53 70 31 24 113 243 283 313 149 170 234 249 246 243 247 239 227 254 276 279 274 261 240 227 221 219 218 217 214 214 213 212 212 210 209 213 216 217 219 218 212 206 209 217 219 224 236 253 273 276 281 286 289 295 300 302 304 306 307 309 315 322 327 330 329 325 324 324 323 322 321 320 319 324 330 336 342 344 343 343 343 342 341 341 343 342 342 343 343 343 344 344
108 139 131 119 127 101 113 112 15 268 258 307 300 228 243 268 270 249 233 256 286 294 296 290 286 286 277 252 231 220 217 217 216 213 212 212 212 212 211 213 216 218 219 221 218 213 210 214 219 221 229 235 251 272 277 283 286 290 296 296 298 301 302 306 312 319 326 328 328 325 323 323 322 321 320 319 319 324 331 336 342 346 344 342 343 342 341 341 341 342 342 341 342 342 342 343 343
86 171 118 119 140 133 160 167 132 182 237 323 309 257 195 208 274 257 255 298 318 315 312 305 300 296 269 233 223 217 215 214 214 213 213 213 213 213 213 215 218 219 219 219 215 212 212 217 220 222 232 240 252 270 277 281 285 289 290 290 294 298 302 308 315 321 326 327 325 323 323 323 321 321 320 320 326 333 337 341 346 345 342 342 343 342 341 342 341 341 340 340 341 341 342 343 341
316 306 73 68 140 133 128 148 157 148 122 339 276 248 223 215 270 297 309 319 320 322 328 321 316 313 219 197 207 210 211 211 212 213 213 214 214 214 216 217 218 218 218 217 214 213 214 218 220 224 234 242 253 268 274 277 281 282 282 285 292 297 303 309 316 324 326 325 324 324 324 323 321 321 322 328 336 339 339 345 348 344 341 342 342 342 343 342 341 340 338 339 341 341 342 341 337
148 61 67 301 128 119 110 106 77 88 122 227 269 267 294 317 304 328 353 335 315 320 339 343 340 355 166 185 198 205 208 208 210 212 213 215 215 216 217 218 219 219 218 216 215 217 218 218 220 228 238 243 254 266 270 272 275 275 277 284 292 297 302 309 319 326 326 325 325 325 324 321 322 325 331 338 341 339 342 347 347 342 340 341 343 344 343 342 341 338 336 338 340 341 342 339 335
124 118 166 201 100 104 103 96 23 44 140 272 327 275 302 333 290 330 353 322 292 291 319 337 336 168 176 184 189 199 205 205 208 210 213 215 216 216 217 218 218 218 218 216 217 219 217 217 222 228 235 241 252 260 263 265 267 270 277 285 290 294 301 313 324 327 325 325 326 325 322 321 326 334 340 343 340 340 344 347 345 340 339 342 344 345 344 342 340 337 336 337 338 340 340 337 333
93 136 143 115 114 117 43 85 112 82 177 292 318 302 274 212 223 296 293 246 248 259 285 293 246 200 188 186 184 193 200 203 206 209 211 214 214 215 216 215 214 213 215 216 218 218 217 220 225 226 231 236 246 254 256 258 262 268 277 284 286 293 306 320 327 325 324 326 326 322 320 326 337 342 342 340 338 339 342 343 342 338 339 344 346 346 344 342 340 337 335 335 336 338 338 336 332
38 81 40 10 121 153 70 85 132 136 137 273 316 326 274 229 217 207 218 224 218 221 249 249 226 207 192 189 185 190 197 200 204 207 210 211 210 211 214 214 216 215 215 216 216 217 219 223 226 228 234 240 247 250 249 252 260 268 276 279 283 295 315 324 324 323 325 326 322 318 324 338 344 342 339 338 335 335 338 340 338 337 341 347 348 347 344 342 341 338 335 333 333 334 335 334 333
356 27 19 16 58 98 135 79 69 91 123 175 318 322 273 254 210 182 214 229 209 203 213 223 217 205 193 189 182 187 192 195 200 203 204 206 205 208 211 214 218 217 215 214 216 218 221 223 226 230 235 240 243 242 243 251 260 267 271 273 282 301 318 322 321 321 324 321 316 322 339 347 345 341 339 336 330 330 336 337 335 337 345 349 349 347 345 343 341 339 336 332 329 332 333 332 333
172 91 88 128 97 106 113 18 343 69 98 156 144 292 273 264 206 196 227 232 214 212 218 224 217 204 198 191 181 183 185 186 192 195 196 199 201 206 210 213 215 215 213 214 217 221 223 224 227 231 235 237 236 235 241 251 259 264 265 269 284 306 317 317 317 319 319 313 317 339 351 349 347 346 342 334 326 329 335 334 334 340 347 350 350 348 346 344 342 340 337 332 329 329 330 330 332